Location: Palombina Nuova
(43.6167°N, 13.4000°E)
Time: 16:28:03
(UTC+00:00)

CZ-4C R/B - Pass Details

Date: 17 February 2020
Orbit: 642 x 1360 km, 63.4° (Epoch: 29 March)

Event Time Altitude Azimuth Distance (km) Brightness Sun altitude
Exits shadow 03:29:39 31° 349° (N) 1,470 3.4 -28.3°
Drops below altitude 10° 03:33:50 10° 26° (NNE) 2,663 5.2 -27.6°
Sets 03:36:53 0° 35° (NE) 3,742 6.2 -27.0°
